Current weather by "City, St" or "zip code"  
 

Current Conditions: John Dunn Helistop, TX

Fair


55.0 F

Last Updated on Oct 31 2020, 1:55 am CDT
Humidity: 72%
Wind Speed: SE 3.5 mph
Barometer 30.20 in
Dewpoint: 46.4 F
Visibility: 10.00 mi
Precip: --
Heat Index: NA
Wind Chill: NA
Current conditions at:

John Dunn Helistop, TX (KMCJ)

Lat: 29.714 Lon: 95.395

Local Radar Image active severe weather and emergency alerts image image weather storm and storm spotter reports image weather observation monitoring service image
Local
Radar
Active
Alerts
Storm Reports Obs
Monitoring

Sign-up For Email & Text Message Weather Alert Notification Services



Advertise Here

Observation History for John Dunn Helistop, TX


Time Wind
(mph)
Vis
(mi)
Weather Precip (in) Temperature (F) Relative
Humidity
Wind
Chill
(F)
Heat
Index
(F)
Pressure
Air Dwpt altimeter
(in)
sea level
(mb)
Rmks
1:55 am CDT SE 3.5 10.00 Fair -- 55.0 46.4 72% NA NA 30.20 M
12:55 am CDT E 8.1 10.00 Fair -- 57.0 44.6 63% 55 NA 30.20 M
11:55 pm CDT E 9.2 10.00 Fair -- 57.0 46.4 67% 55 NA 30.21 M
10:55 pm CDT E 11.5 10.00 Fair -- 59.0 44.6 59% 57 NA 30.20 M
9:55 pm CDT 5.8 10.00 Fair -- 61.0 44.6 55% 61 NA 30.20 M
8:55 pm CDT NE 8.1 10.00 Fair -- 63.0 41.0 45% 63 NA 30.19 M
7:55 pm CDT N 8.1 10.00 Fair -- 64.0 39.2 40% NA NA 30.18 M
6:55 pm CDT N 8.1 10.00 Fair -- 64.0 39.2 40% NA NA 30.17 M
5:55 pm CDT N 0.0 10.00 Fair -- 66.0 39.2 37% NA NA 30.17 M
4:55 pm CDT W 5.8 10.00 Fair -- 66.0 39.2 37% NA NA 30.18 M
3:55 pm CDT N 0.0 10.00 Fair -- 66.0 39.2 37% NA NA 30.19 M
2:55 pm CDT N 0.0 10.00 Fair -- 64.0 41.0 43% NA NA 30.21 M
1:55 pm CDT N 0.0 10.00 Fair -- 64.0 41.0 43% NA NA 30.23 M
12:55 pm CDT N 0.0 10.00 Fair -- 59.0 42.8 55% NA NA 30.26 M
11:55 am CDT 4.6 10.00 Fair -- 57.0 42.8 59% 57 NA 30.29 M
10:55 am CDT E 11.5 G 17.3 10.00 Fair -- 55.0 42.8 63% 52 NA 30.29 M
9:55 am CDT E 9.2 G 17.3 10.00 Fair -- 52.0 44.6 77% 49 NA 30.28 M
8:55 am CDT NE 9.2 10.00 Fair -- 50.0 42.8 76% 46 NA 30.25 M
7:55 am CDT 6.9 G 15.0 10.00 Fair -- 48.0 42.8 82% 45 NA 30.23 M
6:55 am CDT N 8.1 G 18.4 10.00 Fair -- 50.0 42.8 76% 47 NA 30.21 M
5:55 am CDT N 13.8 10.00 Fair -- 48.0 42.8 82% 42 NA 30.19 M
4:55 am CDT N 10.4 G 19.6 10.00 Fair -- 50.0 42.8 76% 46 NA 30.18 M
3:55 am CDT N 11.5 G 20.7 10.00 Fair -- 52.0 44.6 77% 48 NA 30.18 M
2:55 am CDT N 15.0 G 25.3 10.00 Fair -- 52.0 44.6 77% 47 NA 30.18 M

Regional Weather Observation


Houston, Hooks Memorial Airport, TX (KDWH)

Fair
44.0 F

Houston, Houston Hobby Airport, TX (KHOU)

Fair
53.0 F

Houston Southwest Airport, TX (KAXH)

Fair
42.0 F

Houston, Pearland Regional Airport, TX (KLVJ)

Fair
48.0 F

Conroe, Montgomery County Airport, TX (KCXO)

Fair
41.0 F

Cleveland, TX (K6R3)

Fair
43.0 F